TimeEST,TemperatureF,Dew PointF,Humidity,Sea Level PressureIn,VisibilityMPH,Wind Direction,Wind SpeedMPH,Gust SpeedMPH,PrecipitationIn,Events,Conditions,WindDirDegrees,DateUTC
12:15 AM,37.4,26.6,65,29.89,10.0,SW,10.4,16.1,N/A,,Overcast,230,2013-01-01 05:15:00
12:35 AM,37.4,28.4,70,29.88,10.0,WSW,6.9,-,N/A,,Overcast,240,2013-01-01 05:35:00
12:55 AM,37.4,28.4,70,29.88,10.0,WSW,8.1,-,N/A,,Overcast,250,2013-01-01 05:55:00
1:15 AM,37.4,28.4,70,29.89,10.0,WSW,10.4,-,N/A,,Overcast,250,2013-01-01 06:15:00
1:35 AM,37.4,28.4,70,29.89,10.0,West,6.9,-,N/A,,Overcast,260,2013-01-01 06:35:00
1:55 AM,37.4,28.4,70,29.88,10.0,West,5.8,-,N/A,,Overcast,260,2013-01-01 06:55:00
2:15 AM,37.4,28.4,70,29.88,10.0,WSW,6.9,-,N/A,,Overcast,240,2013-01-01 07:15:00
2:35 AM,37.4,30.2,75,29.89,10.0,WSW,8.1,-,N/A,,Overcast,250,2013-01-01 07:35:00
2:55 AM,37.4,30.2,75,29.89,10.0,WSW,6.9,-,N/A,,Overcast,240,2013-01-01 07:55:00
3:15 AM,37.4,30.2,75,29.90,10.0,WSW,8.1,-,N/A,,Overcast,250,2013-01-01 08:15:00
3:35 AM,37.4,30.2,75,29.89,10.0,WSW,8.1,-,N/A,,Overcast,240,2013-01-01 08:35:00
3:55 AM,37.4,30.2,75,29.90,10.0,WSW,8.1,-,N/A,,Overcast,240,2013-01-01 08:55:00
4:15 AM,37.4,30.2,75,29.89,10.0,WSW,9.2,17.3,N/A,,Overcast,240,2013-01-01 09:15:00
4:35 AM,37.4,30.2,75,29.89,10.0,SW,9.2,17.3,N/A,,Overcast,230,2013-01-01 09:35:00
4:55 AM,37.4,30.2,75,29.88,10.0,WSW,11.5,16.1,N/A,,Overcast,240,2013-01-01 09:55:00
5:15 AM,37.4,30.2,75,29.87,10.0,WSW,10.4,-,N/A,,Overcast,240,2013-01-01 10:15:00
5:35 AM,37.4,30.2,75,29.87,10.0,WSW,9.2,-,N/A,,Overcast,240,2013-01-01 10:35:00
6:45 AM,39.2,26.6,61,29.89,10.0,WSW,10.4,15.0,N/A,,Overcast,250,2013-01-01 11:45:00
7:45 AM,37.4,28.4,70,29.90,10.0,WSW,9.2,16.1,N/A,,Overcast,250,2013-01-01 12:45:00
8:45 AM,37.4,28.4,70,29.90,15.0,West,8.1,18.4,N/A,,Overcast,270,2013-01-01 13:45:00
9:45 AM,39.2,28.4,65,29.91,10.0,West,8.1,-,N/A,,Overcast,270,2013-01-01 14:45:00
10:45 AM,39.2,26.6,61,29.90,10.0,West,6.9,-,N/A,,Overcast,270,2013-01-01 15:45:00
11:45 AM,39.2,26.6,61,29.87,10.0,West,12.7,-,N/A,,Overcast,280,2013-01-01 16:45:00
12:20 PM,37.4,28.4,70,29.88,10.0,WNW,12.7,-,N/A,,Overcast,300,2013-01-01 17:20:00
12:45 PM,37.4,26.6,65,29.87,10.0,NW,8.1,17.3,N/A,,Overcast,320,2013-01-01 17:45:00
1:48 PM,37.4,24.8,60,29.86,10.0,NW,10.4,-,N/A,,Overcast,310,2013-01-01 18:48:00
2:45 PM,37.4,23.0,56,29.86,10.0,NW,8.1,15.0,N/A,,Mostly Cloudy,310,2013-01-01 19:45:00
3:45 PM,37.4,23.0,56,29.88,10.0,NNW,9.2,16.1,N/A,,Mostly Cloudy,330,2013-01-01 20:45:00
4:45 PM,35.6,19.4,52,29.90,10.0,NNW,9.2,18.4,N/A,,Overcast,340,2013-01-01 21:45:00
5:45 PM,33.8,17.6,52,29.93,10.0,NNW,10.4,19.6,N/A,,Mostly Cloudy,330,2013-01-01 22:45:00
6:45 PM,32.0,15.8,51,29.96,10.0,NNW,9.2,19.6,N/A,,Clear,330,2013-01-01 23:45:00
7:45 PM,32.0,15.8,51,29.96,10.0,NNW,6.9,13.8,N/A,,Clear,340,2013-01-02 00:45:00
8:45 PM,19.4,17.6,93,29.99,10.0,North,15.0,18.4,N/A,,Clear,360,2013-01-02 01:45:00
9:45 PM,28.4,15.8,59,30.00,10.0,NNE,10.4,-,N/A,,Clear,30,2013-01-02 02:45:00
9:55 PM,28.4,15.8,59,30.01,10.0,NNW,11.5,-,N/A,,Clear,330,2013-01-02 02:55:00
10:15 PM,26.6,15.8,64,30.01,10.0,NNW,12.7,17.3,N/A,,Clear,330,2013-01-02 03:15:00
10:35 PM,26.6,14.0,59,30.02,10.0,NW,10.4,-,N/A,,Clear,320,2013-01-02 03:35:00
10:55 PM,26.6,14.0,59,30.02,10.0,NNW,10.4,-,N/A,,Clear,330,2013-01-02 03:55:00
11:15 PM,26.6,14.0,59,30.02,10.0,NNW,11.5,-,N/A,,Clear,330,2013-01-02 04:15:00
11:35 PM,26.6,14.0,59,30.02,10.0,NW,8.1,-,N/A,,Clear,320,2013-01-02 04:35:00
11:55 PM,24.8,14.0,64,30.02,10.0,NNW,5.8,-,N/A,,Clear,330,2013-01-02 04:55:00